Regional Weather Roundup
Issued by NWS

Home | Current Version | Previous Version | Graphics & Text | Print | Product List | Glossary On
Versions: 1 2 3 4 5 6 7 8 9 10 11 12 13 14 15 16 17 18 19 20 21 22 23 24 25 26 27 28 29 30 31 32 33 34 35 36 37 38 39 40 41 42 43 44 45 46 47 48 49 50
000
ASUS45 KCYS 262010
RWRWY

WYOMING REGIONAL WEATHER ROUNDUP
NATIONAL WEATHER SERVICE CHEYENNE WY
200 PM MDT TUE MAY 26 2015

NOTE:  "FAIR" INDICATES FEW OR NO CLOUDS BELOW 12,000 FEET
WITH NO SIGNIFICANT WEATHER AND/OR OBSTRUCTIONS TO VISIBILITY.

WYZ001-262100-
YELLOWSTONE NATIONAL PARK

CITY           SKY/WX    TMP DP  RH WIND       PRES   REMARKS
LK YELLOWSTONE   N/A     49  35  58 VRB3      30.12S
W YELLOWSTONE  NOT AVBL

$$
WYZ002>013-054>058-071-098>099-262100-
NORTHERN WYOMING

CITY           SKY/WX    TMP DP  RH WIND       PRES   REMARKS
JACKSON        CLOUDY    52  41  66 W10       30.06R
CODY           FAIR      66  41  39 W5        29.94F
GREYBULL       FAIR      72  41  32 N6        29.90F
WORLAND        FAIR      70  45  40 CALM      29.92F
SHERIDAN       CLOUDY    66  47  50 SW7       29.94S
BUFFALO        CLOUDY    61  47  59 W7        29.99S
GILLETTE       CLOUDY    67  46  47 E8        29.94F
HULETT         CLOUDY    68  48  49 N8        29.98F
NEWCASTLE      FAIR      64  46  52 MISG      29.99F

$$
WYZ014>020-022>026-101>103-262100-
CENTRAL WYOMING

CITY           SKY/WX    TMP DP  RH WIND       PRES   REMARKS
BIG PINEY      FAIR      57  38  48 SW12      30.08F
PINEDALE       MOCLDY    55  37  50 W7        30.08F
DUBOIS         CLOUDY    54  34  47 W22       30.04S
LANDER         PTSUNNY   64  41  42 CALM      29.96F
RIVERTON       FAIR      65  41  41 CALM      29.98F
CASPER         PTSUNNY   62  45  53 SW7       29.99F
DOUGLAS        PTSUNNY   68  45  43 SE6       29.99S

$$
WYZ021-027>030-104>119-262100-
SOUTHERN WYOMING

CITY           SKY/WX    TMP DP  RH WIND       PRES   REMARKS
EVANSTON       LGT RAIN  48  44  86 NW3       30.12S FOG
KEMMERER       MOCLDY    55  43  62 SW14      30.10F
FORT BRIDGER   LGT RAIN  54  48  82 W18       30.12S
ROCK SPRINGS   FAIR      60  39  45 SW7       30.06F
DIXON          FAIR      64  37  38 SW5       30.09F
RAWLINS        PTSUNNY   63  40  42 SW13G21   30.06F
SARATOGA       MOCLDY    61  36  39 W10       30.08F
LARAMIE        LGT RAIN  60  39  45 N15G21    30.07F
CHEYENNE       PTSUNNY   56  46  69 SE6       30.06F
TORRINGTON     FAIR      67  50  54 SE10      29.97F
PINE BLUFFS    FAIR      57  46  67 CALM      30.04S

$$


USA.gov is the U.S. government's official web portal to all federal, state and local government web resources and services.